This is the latest recevied weather packets stored in our database for station/object KC7RJK-2. If no packets are shown the sender has not sent any weather packets the latest 10 day(s).
| Time | Temp. | Humidity | Pressure | Rain* | Wind** | Luminosity | Snow |
|---|---|---|---|---|---|---|---|
| 1777949409 | 15° C | 79% | 1012.6 hPa | 0 mm | - | - | - |
| 1777948808 | 15.56° C | 78% | 1012.4 hPa | 0 mm | - | - | - |
| 1777948209 | 15.56° C | 77% | 1012.4 hPa | 0 mm | - | - | - |
| 1777947611 | 16.11° C | 76% | 1012.3 hPa | 0 mm | - | - | - |
| 1777947013 | 16.67° C | 74% | 1012.2 hPa | 0 mm | - | - | - |
| 1777946411 | 17.22° C | 73% | 1012.3 hPa | 0 mm | - | - | - |
| 1777945809 | 17.78° C | 72% | 1012.3 hPa | 0 mm | - | - | - |
| 1777945212 | 17.78° C | 71% | 1012.2 hPa | 0 mm | - | - | - |
| 1777944609 | 18.33° C | 70% | 1012.3 hPa | 0 mm | - | - | - |
| 1777944009 | 18.89° C | 70% | 1012.3 hPa | 0 mm | - | - | - |
| 1777943409 | 18.33° C | 70% | 1012.3 hPa | 0 mm | - | - | - |
| 1777942809 | 18.89° C | 70% | 1012.3 hPa | 0 mm | - | - | - |
| 1777942208 | 18.89° C | 70% | 1012.4 hPa | 0 mm | - | - | - |
| 1777941609 | 19.44° C | 68% | 1012.4 hPa | 0 mm | - | - | - |
| 1777941009 | 19.44° C | 68% | 1012.2 hPa | 0 mm | - | - | - |
| 1777940409 | 20° C | 68% | 1012.3 hPa | 0 mm | - | - | - |
| 1777939808 | 20° C | 67% | 1012.3 hPa | 0 mm | - | - | - |
| 1777939209 | 20° C | 69% | 1012.3 hPa | 0 mm | - | - | - |
| 1777938610 | 20° C | 68% | 1012.3 hPa | 0 mm | - | - | - |
| 1777938010 | 20° C | 67% | 1012.2 hPa | 0 mm | - | - | - |
| 1777937411 | 20° C | 70% | 1012.4 hPa | 0 mm | - | - | - |
| 1777936809 | 20° C | 68% | 1012.4 hPa | 0 mm | - | - | - |
| 1777936209 | 20° C | 67% | 1012.6 hPa | 0 mm | - | - | - |
| 1777935609 | 20.56° C | 68% | 1012.7 hPa | 0 mm | - | - | - |
| 1777935009 | 20.56° C | 69% | 1012.7 hPa | 0 mm | - | - | - |
* Rain latest hour (hover to see other rain measurements)
** Current wind speed in m/s (hover to see current wind gust speed)